#timestamp,LO_Frequency,Hit,StdDev 
1551844815.0,286047013.6,N
1551844816.0,286047013.6,N
1551844835.8,286047013.3,N
1551844855.6,286047014.4,N
1551844875.5,286047017.0,N
1551844895.3,286047017.1,N
1551844915.1,286047015.8,N
1551844935.9,286047017.0,N
1551844955.7,286047012.9,N
1551844975.6,286047015.0,N
1551844995.4,286047012.9,N
1551845015.2,286047013.7,N
1551845035.1,286047013.1,N
1551845036.0,286047013.1,N
1551845055.8,286047015.1,N
1551845075.6,286047015.1,N
1551845095.5,286047014.1,N
1551845115.3,286047016.4,N
1551845135.2,286047018.2,N
1551845155.9,286047018.5,N
1551845175.7,286047015.9,N
1551845195.6,286047015.2,N
1551845215.4,286047015.2,Y
1551845235.2,286047001.2,P
1551845255.1,286047000.9,N
1551845256.0,286047000.9,N
1551845275.8,286047000.5,N
1551845295.7,286046999.1,N
1551845315.5,286046996.8,N
1551845335.3,286046997.1,N
1551845355.2,286046998.3,N
1551845375.0,286046999.1,N
1551845375.9,286046999.1,N
1551845395.7,286046998.9,N
1551845415.6,286047000.0,N
1551845435.4,286047002.1,N
1551845455.3,286047003.3,N
1551845475.1,286047005.1,N
1551845495.8,286047005.0,N
1551845515.7,286047004.8,N
1551845535.5,286047008.7,N
1551845555.4,286047008.4,N
1551845575.2,286047008.9,N
1551845595.0,286047008.8,N
1551845595.9,286047008.8,N
1551845615.8,286047009.2,N
1551845635.6,286047008.3,N
1551845655.4,286047007.9,N
1551845675.3,286047010.6,N
1551845695.1,286047010.3,N
1551845715.9,286047008.1,N
1551845735.7,286047008.8,N
1551845755.5,286047007.1,N
1551845775.4,286047006.0,N
1551845795.2,286047001.3,N
1551845815.0,286047002.8,N
1551845815.9,286047002.8,N
1551845835.8,286047000.9,N
1551845855.6,286046999.6,N
1551845875.5,286046995.0,N
1551845895.3,286046993.6,N
1551845915.1,286046993.6,N
1551845935.9,286046994.6,N
1551845955.7,286046993.5,N
1551845975.6,286046993.8,N
1551845995.4,286046999.1,N
1551846015.2,286046998.2,N
1551846035.1,286046997.8,N
1551846036.0,286046997.8,N
1551846055.8,286046996.1,N
1551846075.6,286046995.0,N
1551846095.5,286046994.4,N
1551846115.3,286046993.0,N
1551846135.2,286046994.8,N
1551846155.9,286046993.3,N
1551846175.7,286046994.9,N
1551846195.6,286046999.3,N
1551846215.4,286046999.3,N
1551846235.2,286046996.7,N
1551846255.1,286046996.9,N
1551846256.0,286046996.9,N
1551846275.8,286046998.9,N
1551846295.7,286047000.9,N
1551846315.5,286047001.0,N
1551846335.3,286047002.6,N
1551846355.2,286047001.5,N
1551846375.0,286047003.1,N
1551846375.9,286047003.1,N
1551846395.7,286047005.1,N
1551846415.6,286047004.7,N
1551846435.4,286047005.0,N
1551846455.3,286047008.8,N
1551846475.1,286047008.3,N
1551846495.8,286047010.6,N
1551846515.7,286047009.5,N
1551846535.5,286047009.7,N
1551846555.4,286047009.5,N
1551846575.2,286047009.3,N
1551846595.0,286047009.5,N
1551846595.9,286047009.5,N
1551846615.8,286047010.6,N
1551846635.6,286047008.0,N
1551846655.4,286047006.8,N
1551846675.3,286047004.7,N
1551846695.1,286047005.5,N
1551846715.9,286047001.6,N
1551846735.7,286047002.3,N
1551846755.5,286047001.0,N
1551846775.4,286046996.5,N
1551846795.2,286046998.0,N
1551846815.0,286046994.0,N
1551846815.9,286046994.0,N
1551846835.8,286046993.7,N
1551846855.6,286046996.2,N
1551846875.5,286046997.4,N
1551846895.3,286046996.9,N
1551846915.1,286046996.8,N
1551846935.9,286046997.1,N
1551846955.7,286046998.8,N
1551846975.5,286046998.8,N
1551846995.4,286047001.0,N
1551847015.2,286047001.2,N
1551847035.1,286046998.4,N
1551847036.0,286046998.4,N
1551847055.8,286046999.4,N
1551847075.6,286046999.6,N
1551847095.5,286046997.8,N
1551847115.3,286046995.5,N
1551847135.2,286046996.8,N
1551847155.9,286046996.7,N
1551847175.7,286046998.3,N
1551847195.6,286047001.0,N
1551847215.4,286046998.5,N
1551847235.2,286046998.8,N
1551847255.1,286047000.9,N
1551847256.0,286047000.9,N
1551847275.8,286047000.3,N
1551847295.7,286047002.6,N
1551847315.5,286047002.8,N
1551847335.3,286046999.7,N
1551847355.2,286047001.9,N
1551847375.0,286047002.4,N
1551847375.9,286047002.4,N
1551847395.8,286047005.5,N
1551847415.6,286047004.8,N
1551847435.4,286047007.3,N
1551847455.3,286047006.2,N
1551847475.1,286047008.0,N
1551847495.9,286047008.9,N
1551847515.7,286047009.2,N
1551847535.5,286047009.1,N
1551847555.4,286047008.8,N
1551847575.2,286047008.9,N
1551847595.0,286047007.7,N
1551847595.9,286047007.7,N
1551847615.8,286047009.7,N
1551847635.6,286047009.7,N
1551847655.5,286047007.9,N
1551847675.3,286047007.4,N
1551847695.1,286047007.4,N
1551847715.9,286047007.3,N
1551847735.7,286047007.1,N
1551847755.6,286047008.7,N
1551847775.4,286047010.6,Y
1551847795.2,286047005.4,P
1551847815.1,286047005.3,P
1551847816.0,286047005.3,P
1551847835.8,286047004.7,Y
1551847855.6,286046998.1,P
1551847875.5,286046999.4,N
1551847895.3,286046998.3,N
1551847915.2,286047000.9,N
1551847935.9,286047000.9,N
1551847955.7,286047000.0,N
1551847975.6,286047001.1,N
1551847995.4,286047000.8,N
1551848015.2,286047002.4,N
1551848035.1,286047002.7,N
1551848036.0,286047002.7,N
1551848055.8,286047002.5,N
1551848075.7,286047004.0,N
1551848095.5,286047004.4,N
1551848115.3,286047001.6,N
1551848135.2,286047001.8,N
1551848155.0,286047003.3,N
1551848155.9,286047003.3,N
1551848175.8,286047003.2,N
1551848195.6,286047003.6,N
1551848215.4,286047002.6,N
1551848235.3,286047004.0,N
1551848255.1,286047005.1,N
1551848275.8,286047005.0,N
1551848295.7,286047005.5,N
1551848315.5,286047005.5,N
1551848335.4,286047005.2,N
1551848355.2,286047006.5,Y
1551848375.0,286047003.1,P
1551848375.9,286047003.1,P
1551848395.8,286047003.8,P
